Location: Evensen
(52.5775°N, 9.5258°E)
Time: 08:17:12
(UTC+00:00)

Cosmos 1766 - Pass Details

Date: 15 May 2026
Orbit: 398 x 405 km, 82.5° (Epoch: 5 June)

Event Time Altitude Azimuth Distance (km) Brightness Sun altitude
Rises 21:51:45 0° 346° (NNW) 2,364 8.4 -16.0°
Reaches altitude 10° 21:53:49 10° 342° (NNW) 1,495 6.9 -16.1°
Maximum altitude 21:57:00 57° 263° (W) 493 3.1 -16.2°
Enters shadow 21:58:04 36° 202° (SSW) 680 3.4 -16.3°
